Vorticity
5 4 4 4 5 5 4 2 1 5 3 4 6 5 5 8 5 7 8 13 15 9 8 8 8 6 8 5 3 5 8 12 15 9 3 -3 -4 9 8 10 15 26 18
5 4 4 5 6 4 4 2 7 6 8 11 9 7 9 8 7 8 9 12 15 19 11 8 7 7 5 4 10 5 6 4 13 13 31 33 -5 57 -3 -9 -26 9 -0
3 4 4 4 7 4 5 6 2 1 4 5 8 9 7 8 9 7 9 12 8 12 20 10 5 6 6 7 13 15 6 7 11 32 6 26 36 -4 -10 15 10 7 -1
3 3 6 8 7 -1 -3 4 9 12 10 7 8 7 7 6 7 8 12 8 13 14 14 14 10 10 8 12 16 9 10 9 7 10 7 -12 -22 0 20 -30 -6 41 -10
2 5 3 1 0 3 0 5 7 13 13 10 10 8 8 8 8 9 9 12 10 13 12 11 13 15 13 15 7 15 9 7 5 8 12 17 4 -17 10 37 -2 -5 2
6 3 5 3 3 -2 -3 -2 8 13 11 9 8 8 10 9 9 10 12 18 15 14 14 12 10 9 13 11 9 -1 9 11 7 4 6 12 23 31 -14 -12 -8 12 9
3 5 1 1 -0 -1 -4 1 12 16 8 8 9 10 9 7 10 16 17 19 19 14 13 10 9 9 10 15 14 14 14 19 7 2 0 13 3 17 29 10 4 -5 5
0 1 -3 5 3 3 1 6 22 11 8 9 10 9 12 18 21 27 20 17 14 13 11 10 12 11 12 16 16 6 13 1 26 4 9 17 12 8 -0 31 27 23 -6
1 -1 1 5 6 -1 18 20 12 11 10 11 13 17 17 16 17 18 16 18 14 13 12 8 8 11 10 11 13 14 11 10 5 20 3 14 6 -5 3 13 9 -18 33
5 5 6 2 3 11 17 12 12 9 9 11 16 14 13 11 15 16 10 11 4 7 7 10 11 6 6 10 13 14 6 8 -4 18 10 11 20 11 14 -1 18 32 -5
5 3 1 3 3 24 13 11 9 10 10 13 12 9 11 11 10 14 10 9 6 3 9 13 18 16 23 18 12 15 11 4 6 13 7 20 14 14 15 25 11 -16 -0
-3 2 0 3 24 9 10 10 10 10 12 14 16 12 16 19 21 14 15 16 20 25 18 19 19 12 19 19 16 17 13 8 10 7 3 3 11 7 1 10 -3 9 4
-1 -2 6 25 12 7 11 9 11 12 16 17 16 21 19 22 15 18 13 21 20 28 23 5 24 27 25 36 17 16 6 26 11 10 14 9 25 -8 14 4 2 14 -2
-1 2 19 16 6 6 7 10 13 16 16 16 25 22 12 5 13 3 -2 13 16 9 11 12 19 7 21 24 13 6 22 22 11 12 -2 7 11 7 14 5 26 8 14
11 13 14 7 5 4 3 15 14 16 7 14 15 24 8 2 9 10 14 10 40 30 21 18 4 23 26 27 19 9 -11 1 13 7 30 -2 24 29 53 3 11 10 21
4 9 13 12 13 8 7 15 14 12 10 15 17 12 5 15 14 13 28 15 7 11 9 23 10 2 36 4 36 -2 11 16 -1 -2 23 15 26 13 -4 9 7 3 10
9 19 11 14 14 7 14 12 13 10 12 16 20 4 5 17 5 11 11 9 13 29 11 13 -1 16 15 12 12 12 7 -1 14 11 14 19 10 10 46 2 4 7 10
15 8 5 12 11 4 14 12 12 8 16 23 18 13 3 14 4 15 22 11 24 20 23 29 27 1 2 2 19 15 15 -3 12 11 -3 10 15 19 13 2 5 12 16
12 3 3 -3 11 4 15 13 9 8 15 28 17 10 11 7 2 13 16 22 9 11 34 22 21 29 14 9 -8 13 5 8 1 13 14 6 6 -2 1 9 13 11 11
0 8 11 13 10 10 11 12 12 8 20 22 19 8 6 10 13 15 8 15 9 -0 18 -8 11 4 26 22 9 -6 7 5 15 17 16 16 13 15 14 23 19 10 5
3 1 17 10 11 15 10 11 16 8 16 20 18 6 2 18 5 9 22 11 9 6 16 14 12 9 12 12 -21 22 15 8 9 15 20 23 20 19 13 13 12 9 11
1 10 -3 9 10 15 10 11 15 7 14 23 18 4 1 3 8 6 13 14 6 11 15 8 8 10 15 15 6 12 9 12 10 12 11 11 12 10 9 12 11 8 6
-2 -5 4 13 9 16 7 9 13 9 10 24 17 9 4 7 5 20 15 5 10 4 7 13 8 17 12 12 15 16 15 12 9 7 9 8 7 7 5 5 4 -3 1
5 15 7 12 8 15 4 13 13 14 9 16 18 14 11 10 15 11 19 13 13 15 14 12 11 10 13 13 14 17 16 12 12 11 11 9 11 12 6 9 0 -3 12
2 2 4 11 10 14 8 14 11 15 11 9 14 16 17 16 14 14 16 13 13 10 8 11 9 9 11 11 9 8 9 9 11 10 9 3 4 2 -1 6 26 24 6
-2 2 0 20 10 12 13 9 5 19 12 11 10 10 10 11 10 7 14 16 13 13 12 10 9 11 6 9 7 6 7 5 3 3 4 6 13 6 21 25 8 6 4
Height
3106 3107 3106 3107 3107 3106 3106 3105 3104 3102 3100 3099 3097 3096 3095 3093 3092 3089 3087 3085 3083 3082 3081 3083 3083 3085 3085 3085 3085 3085 3086 3087 3089 3093 3094 3097 3101 3104 3106 3107 3109 3111 3116
3103 3103 3104 3104 3104 3103 3102 3101 3100 3098 3095 3092 3090 3087 3085 3084 3083 3081 3078 3076 3074 3074 3072 3073 3075 3075 3077 3077 3078 3078 3079 3080 3083 3085 3086 3089 3095 3094 3097 3100 3102 3105 3109
3099 3100 3100 3100 3100 3099 3097 3096 3093 3091 3088 3084 3081 3079 3076 3074 3073 3071 3069 3067 3065 3065 3063 3063 3064 3065 3067 3067 3069 3070 3071 3073 3075 3078 3082 3080 3082 3087 3089 3092 3096 3098 3100
3096 3096 3096 3095 3095 3094 3093 3090 3088 3084 3081 3077 3074 3070 3066 3064 3063 3061 3061 3059 3056 3054 3054 3054 3054 3056 3057 3057 3060 3061 3063 3065 3068 3071 3074 3074 3077 3079 3084 3086 3089 3090 3093
3092 3093 3093 3093 3092 3090 3088 3085 3082 3078 3073 3069 3066 3062 3058 3055 3051 3050 3049 3049 3047 3044 3044 3045 3045 3047 3047 3048 3051 3053 3054 3056 3060 3063 3067 3067 3068 3070 3075 3077 3081 3086 3087
3089 3089 3089 3089 3088 3085 3082 3078 3075 3071 3066 3062 3058 3054 3050 3046 3042 3039 3037 3036 3035 3035 3034 3035 3036 3037 3039 3040 3042 3045 3046 3048 3051 3055 3057 3059 3062 3064 3068 3071 3075 3078 3079
3085 3085 3085 3084 3082 3079 3076 3072 3067 3063 3058 3054 3049 3045 3041 3036 3032 3028 3026 3024 3024 3025 3025 3024 3026 3027 3028 3030 3032 3034 3037 3040 3042 3046 3050 3052 3055 3058 3060 3063 3067 3069 3073
3081 3080 3080 3078 3075 3072 3067 3064 3059 3054 3050 3045 3041 3037 3031 3026 3021 3018 3015 3014 3014 3016 3016 3016 3016 3018 3019 3020 3022 3025 3028 3031 3034 3038 3042 3044 3047 3050 3053 3057 3060 3061 3065
3076 3075 3074 3072 3069 3065 3060 3055 3051 3046 3041 3036 3032 3027 3021 3016 3012 3010 3008 3006 3007 3007 3007 3008 3008 3009 3010 3012 3014 3016 3019 3022 3026 3029 3034 3037 3039 3042 3046 3048 3053 3054 3056
3072 3071 3069 3065 3061 3057 3052 3048 3043 3038 3032 3028 3022 3017 3013 3009 3005 3002 3001 2999 2998 2998 2998 2999 2998 2999 3000 3002 3004 3007 3011 3014 3018 3021 3026 3030 3033 3036 3039 3041 3045 3047 3050
3066 3064 3062 3059 3055 3051 3046 3041 3036 3031 3026 3020 3015 3010 3006 3001 2997 2994 2992 2990 2989 2988 2988 2987 2986 2987 2988 2990 2993 2998 3003 3007 3012 3014 3020 3023 3026 3029 3033 3035 3039 3042 3045
3061 3060 3057 3053 3048 3044 3040 3035 3029 3024 3018 3012 3007 3002 2997 2993 2989 2986 2984 2982 2980 2978 2976 2975 2975 2976 2978 2981 2984 2989 2995 3000 3004 3009 3013 3016 3020 3022 3027 3030 3033 3037 3038
3057 3055 3051 3048 3043 3040 3034 3029 3022 3017 3010 3005 3000 2995 2990 2987 2984 2981 2978 2975 2971 2969 2968 2969 2968 2968 2970 2973 2978 2984 2989 2994 2998 3003 3007 3010 3013 3017 3021 3024 3027 3031 3033
3051 3049 3046 3042 3038 3035 3029 3022 3016 3010 3005 3000 2995 2990 2988 2985 2981 2978 2974 2970 2967 2964 2963 2963 2963 2963 2964 2967 2973 2979 2984 2989 2993 2998 3001 3004 3006 3012 3014 3018 3022 3024 3025
3046 3044 3041 3037 3033 3029 3024 3017 3011 3006 3002 2996 2992 2988 2985 2982 2979 2975 2971 2967 2961 2960 2960 2959 2960 2960 2960 2962 2968 2975 2980 2986 2989 2991 2996 2995 3002 3003 3006 3014 3018 3018 3021
3041 3038 3035 3031 3028 3024 3019 3012 3007 3003 2998 2993 2989 2985 2983 2980 2976 2972 2968 2966 2962 2960 2959 2958 2958 2959 2959 2965 2969 2974 2978 2984 2988 2988 2992 2996 2999 3003 3005 3009 3013 3016 3018
3036 3033 3030 3026 3022 3018 3013 3008 3004 2999 2994 2989 2985 2983 2981 2978 2975 2972 2968 2965 2961 2958 2958 2958 2959 2961 2963 2966 2970 2972 2980 2984 2988 2989 2993 2994 2997 3000 3002 3006 3009 3012 3014
3031 3028 3025 3022 3018 3013 3008 3004 3000 2995 2990 2986 2983 2982 2980 2977 2975 2972 2968 2964 2961 2959 2958 2958 2959 2962 2964 2967 2969 2973 2980 2984 2987 2989 2991 2993 2995 2999 3002 3004 3006 3008 3010
3026 3024 3021 3018 3013 3009 3004 3000 2997 2992 2988 2983 2981 2981 2979 2978 2976 2972 2969 2966 2964 2962 2959 2960 2962 2963 2967 2971 2973 2977 2982 2985 2987 2988 2991 2993 2995 2997 3000 3002 3003 3005 3008
3021 3020 3017 3013 3009 3005 3001 2998 2994 2990 2986 2982 2980 2979 2978 2977 2975 2974 2971 2969 2967 2965 2964 2964 2965 2966 2969 2972 2976 2980 2983 2985 2987 2988 2990 2991 2992 2994 2996 2998 3000 3004 3007
3018 3016 3013 3009 3006 3002 2999 2995 2992 2989 2985 2981 2978 2978 2978 2976 2976 2975 2972 2971 2970 2969 2968 2969 2969 2971 2972 2975 2978 2980 2982 2984 2985 2986 2988 2989 2991 2993 2996 2998 3001 3004 3006
3013 3012 3010 3006 3003 2999 2996 2993 2991 2988 2984 2981 2978 2978 2978 2977 2977 2976 2974 2973 2973 2972 2972 2973 2974 2975 2976 2978 2979 2980 2981 2982 2985 2987 2988 2990 2992 2995 2997 3000 3002 3003 3005
3008 3007 3006 3003 3000 2997 2994 2991 2989 2987 2984 2980 2978 2977 2978 2977 2977 2976 2975 2975 2975 2975 2975 2975 2976 2977 2978 2979 2980 2981 2982 2984 2986 2988 2991 2993 2995 2997 2999 3001 3002 3003 3004
3003 3003 3002 2999 2997 2994 2992 2990 2988 2986 2983 2981 2978 2977 2977 2977 2976 2975 2975 2975 2975 2976 2976 2977 2978 2978 2979 2980 2981 2983 2985 2987 2989 2991 2993 2995 2997 2998 2999 3000 3000 3000 3000
2998 2998 2997 2995 2994 2991 2989 2988 2986 2984 2983 2981 2979 2977 2977 2977 2976 2977 2977 2976 2977 2976 2977 2978 2979 2980 2981 2982 2983 2985 2987 2989 2991 2992 2994 2995 2996 2997 2998 2998 2997 2996 2995
2991 2992 2991 2990 2989 2988 2986 2985 2984 2983 2982 2981 2980 2979 2979 2979 2978 2978 2979 2979 2979 2979 2979 2980 2981 2983 2984 2985 2987 2988 2989 2991 2992 2993 2994 2995 2995 2995 2995 2994 2993 2993 2992